TimePST,TemperatureF,Dew PointF,Humidity,Sea Level PressureIn,VisibilityMPH,Wind Direction,Wind SpeedMPH,Gust SpeedMPH,PrecipitationIn,Events,Conditions,WindDirDegrees,DateUTC
12:29 AM,44.6,42.8,93,29.73,1.8,West,10.4,-,0.02,Rain,Rain,260,2013-01-09 08:29:00
12:37 AM,44.6,42.8,93,29.73,3.0,WSW,8.1,-,0.03,Rain,Light Rain,250,2013-01-09 08:37:00
12:53 AM,45.0,43.0,93,29.73,3.0,WSW,6.9,-,0.03,Rain,Light Rain,240,2013-01-09 08:53:00
1:09 AM,44.6,42.8,93,29.73,5.0,WSW,8.1,-,0.00,Rain,Light Rain,250,2013-01-09 09:09:00
1:40 AM,44.6,41.0,87,29.73,2.5,West,9.2,19.6,0.01,Rain,Light Rain,270,2013-01-09 09:40:00
1:53 AM,43.0,41.0,93,29.73,4.0,West,6.9,-,0.02,Rain,Light Rain,270,2013-01-09 09:53:00
2:07 AM,44.6,42.8,93,29.73,4.0,West,8.1,-,0.00,Rain,Light Rain,260,2013-01-09 10:07:00
2:53 AM,43.0,41.0,93,29.73,2.5,WNW,4.6,-,0.01,Rain,Light Rain,290,2013-01-09 10:53:00
2:59 AM,42.8,41.0,93,29.72,3.0,West,3.5,-,0.01,Rain,Light Rain,280,2013-01-09 10:59:00
3:22 AM,42.8,41.0,93,29.72,4.0,Calm,Calm,-,0.01,Rain,Light Rain,0,2013-01-09 11:22:00
3:33 AM,42.8,41.0,93,29.72,1.8,SSW,8.1,-,0.02,Rain,Rain,200,2013-01-09 11:33:00
3:43 AM,42.8,41.0,93,29.72,3.0,West,4.6,-,0.04,Rain,Light Rain,260,2013-01-09 11:43:00
3:53 AM,43.0,41.0,93,29.72,4.0,NW,3.5,-,0.04,Rain,Light Rain,310,2013-01-09 11:53:00
4:23 AM,42.8,41.0,93,29.71,1.8,ESE,3.5,-,N/A,Rain,Light Rain,120,2013-01-09 12:23:00
4:34 AM,42.8,41.0,93,29.71,3.0,Variable,4.6,-,0.03,Rain,Light Rain,0,2013-01-09 12:34:00
4:53 AM,42.8,41.0,93,29.70,5.0,SSE,3.5,-,N/A,Rain,Light Rain,150,2013-01-09 12:53:00
5:09 AM,42.8,41.0,93,29.71,1.8,West,3.5,-,0.01,Rain,Rain,270,2013-01-09 13:09:00
5:18 AM,42.8,41.0,93,29.71,3.0,Calm,Calm,-,0.02,Rain,Light Rain,0,2013-01-09 13:18:00
5:53 AM,42.1,39.9,92,29.71,5.0,West,3.5,-,0.03,Rain,Light Rain,270,2013-01-09 13:53:00
6:53 AM,41.0,39.0,93,29.71,5.0,Variable,3.5,-,0.00,Rain,Light Rain,0,2013-01-09 14:53:00
7:53 AM,41.0,39.2,93,29.73,5.0,West,5.8,-,N/A,,Mostly Cloudy,280,2013-01-09 15:53:00
8:53 AM,41.0,39.0,93,29.75,5.0,Calm,Calm,-,0.01,Rain,Light Rain,0,2013-01-09 16:53:00
9:16 AM,42.8,39.2,87,29.76,4.0,WNW,5.8,-,0.00,,Mostly Cloudy,290,2013-01-09 17:16:00
9:53 AM,42.1,39.0,89,29.77,4.0,West,3.5,-,0.00,,Partly Cloudy,270,2013-01-09 17:53:00
10:13 AM,42.8,39.2,87,29.78,2.0,WNW,12.7,16.1,0.00,Rain,Light Rain,290,2013-01-09 18:13:00
10:20 AM,41.0,39.2,93,29.78,1.5,WNW,6.9,16.1,0.01,Rain,Light Rain,290,2013-01-09 18:20:00
10:27 AM,41.0,39.2,93,29.78,3.0,WNW,6.9,-,0.01,Rain,Light Rain,300,2013-01-09 18:27:00
10:37 AM,41.0,37.4,87,29.79,4.0,WNW,10.4,16.1,0.01,Rain,Light Rain,300,2013-01-09 18:37:00
10:46 AM,41.0,37.4,87,29.79,2.5,NW,5.8,-,0.01,Rain,Light Rain,310,2013-01-09 18:46:00
10:53 AM,41.0,37.9,89,29.79,2.0,Calm,Calm,-,0.01,Rain,Light Rain,0,2013-01-09 18:53:00
10:57 AM,41.0,37.4,87,29.79,3.0,Variable,3.5,-,0.01,Rain,Light Rain,0,2013-01-09 18:57:00
11:03 AM,41.0,37.4,87,29.79,2.5,WSW,4.6,-,0.01,Rain,Light Rain,250,2013-01-09 19:03:00
11:15 AM,41.0,37.4,87,29.79,3.0,West,4.6,-,0.01,Rain,Light Rain,260,2013-01-09 19:15:00
11:29 AM,41.0,37.4,87,29.79,2.5,WSW,12.7,19.6,0.01,Rain,Light Rain,240,2013-01-09 19:29:00
11:35 AM,41.0,37.4,87,29.79,1.2,West,9.2,19.6,0.02,Rain,Light Rain,270,2013-01-09 19:35:00
11:45 AM,41.0,37.4,87,29.79,2.0,West,12.7,18.4,N/A,Rain,Light Rain,260,2013-01-09 19:45:00
11:49 AM,41.0,37.4,87,29.79,3.0,WNW,6.9,18.4,N/A,Rain,Light Rain,290,2013-01-09 19:49:00
11:53 AM,41.0,37.0,86,29.79,3.0,WNW,5.8,18.4,0.04,Rain,Light Rain,290,2013-01-09 19:53:00
12:53 PM,43.0,37.0,80,29.80,4.0,West,8.1,-,0.00,,Haze,270,2013-01-09 20:53:00
1:53 PM,42.1,35.1,76,29.81,4.0,West,8.1,-,N/A,,Haze,270,2013-01-09 21:53:00
2:53 PM,44.1,33.1,65,29.83,4.0,West,8.1,-,0.00,,Haze,260,2013-01-09 22:53:00
3:53 PM,41.0,33.1,73,29.84,4.0,West,10.4,-,N/A,,Haze,270,2013-01-09 23:53:00
4:53 PM,37.9,30.9,76,29.86,4.0,Calm,Calm,-,N/A,,Haze,0,2013-01-10 00:53:00
5:53 PM,36.0,34.0,93,29.87,4.0,Calm,Calm,-,0.00,Rain,Light Rain,0,2013-01-10 01:53:00
6:53 PM,34.0,33.1,96,29.88,5.0,East,3.5,-,0.00,,Scattered Clouds,90,2013-01-10 02:53:00
7:53 PM,35.1,33.1,92,29.89,4.0,Calm,Calm,-,0.00,Rain,Light Rain,0,2013-01-10 03:53:00
8:53 PM,34.0,33.1,96,29.90,5.0,Calm,Calm,-,0.00,Rain,Light Rain,0,2013-01-10 04:53:00
9:53 PM,35.1,35.1,100,29.91,5.0,Calm,Calm,-,0.01,,Overcast,0,2013-01-10 05:53:00
10:44 PM,35.6,35.6,100,29.91,5.0,ESE,3.5,-,0.01,,Overcast,120,2013-01-10 06:44:00
10:53 PM,35.1,34.0,96,29.92,5.0,ESE,4.6,-,0.01,,Mostly Cloudy,120,2013-01-10 06:53:00
11:51 PM,33.8,33.8,100,29.91,6.0,ENE,3.5,-,N/A,,Mostly Cloudy,60,2013-01-10 07:51:00
11:53 PM,34.0,34.0,100,29.92,6.0,ENE,3.5,-,N/A,,Mostly Cloudy,70,2013-01-10 07:53:00